Starlink 5227

operational
NORAD ID: 54181 Int'l Des: 2022-141 Owner: SPXS Country: US Constellation: starlink
LEOCIRCULAR

About Starlink 5227

Description loading...

Live Position

Loading 3D Globe...

Upcoming Passes

Altitude History

Altitude vs Time

uPlot chart will show altitude changes over time

Two-Line Element Set

1 54181U 22141AA 25302.95077779 .00000850 00000-0 71461-4 0 9998
2 54181 53.2156 230.8050 0001208 95.0558 265.0572 15.08837783166127
Epoch: Oct 29, 2025 • Age: 30 hours

Current Status

Altitude 545.4 km
Velocity 7.59 km/s
Sub-Earth Point -19.56°S, 44.18°W
Launch Date Oct 28, 2022
Age 3 years
Type internet

Technical Details

Classification Payload
Mass 305.00 kg
Dry Mass 290.00 kg
Total Mass 305.00 kg
Length 0.20 m
Diameter 2.80 m
Span 9.00 m
Shape Box + pan
Manufacturer SPXS
Bus Type Starlink
Phase Status In Orbit
Owner/State SPXS/US

Large Constellations

Loading constellations...